Location: Monteux
(44.0348°N, 4.9972°E)
Time: 18:18:36
(UTC+00:00)

USA 267 - Pass Details

Date: 30 November 2020
Orbit: 1100 x 1107 km, 123.0° (Epoch: 18 January)

Event Time Altitude Azimuth Distance (km) Brightness Sun altitude
Exits shadow 16:31:01 - 71° (ENE) 3,348 5.1 -5.2°
Reaches altitude 10° 16:32:11 10° 66° (ENE) 2,963 4.8 -5.4°
Maximum altitude 16:37:40 30° 9° (N) 1,865 4.2 -6.3°
Drops below altitude 10° 16:43:11 10° 311° (NW) 2,969 5.9 -7.2°
Sets 16:45:58 0° 302° (WNW) 3,929 6.7 -7.7°
